Year,Month,Day,Hour,Minute,Value (Times are PST for temperature in C)
2015,10,16,00,00,10.40
2015,10,16,00,01,10.30
2015,10,16,00,02,10.30
2015,10,16,00,03,10.30
2015,10,16,00,04,10.30
2015,10,16,00,05,10.30
2015,10,16,00,06,10.20
2015,10,16,00,07,10.20
2015,10,16,00,08,10.20
2015,10,16,00,09,10.20
2015,10,16,00,10,10.20
2015,10,16,00,11,10.20
2015,10,16,00,12,10.20
2015,10,16,00,13,10.20
2015,10,16,00,14,10.20
2015,10,16,00,15,10.20
2015,10,16,00,16,10.20
2015,10,16,00,17,10.10
2015,10,16,00,18,10.20
2015,10,16,00,19,10.20
2015,10,16,00,20,10.20
2015,10,16,00,21,10.20
2015,10,16,00,22,10.20
2015,10,16,00,23,10.20
2015,10,16,00,24,10.10
2015,10,16,00,25,10.10
2015,10,16,00,26,10.10
2015,10,16,00,27,10.10
2015,10,16,00,28,10.10
2015,10,16,00,29,10.10
2015,10,16,00,30,10.10
2015,10,16,00,31,10.10
2015,10,16,00,32,10.00
2015,10,16,00,33,10.00
2015,10,16,00,34,10.00
2015,10,16,00,35,10.00
2015,10,16,00,36,9.90
2015,10,16,00,37,9.90
2015,10,16,00,38,9.90
2015,10,16,00,39,9.90
2015,10,16,00,40,9.90
2015,10,16,00,41,9.90
2015,10,16,00,42,9.90
2015,10,16,00,43,9.90
2015,10,16,00,44,9.90
2015,10,16,00,45,9.90
2015,10,16,00,46,9.90
2015,10,16,00,47,10.00
2015,10,16,00,48,10.00
2015,10,16,00,49,10.10
2015,10,16,00,50,10.10
2015,10,16,00,51,10.20
2015,10,16,00,52,10.20
2015,10,16,00,53,10.30
2015,10,16,00,54,10.30
2015,10,16,00,55,10.30
2015,10,16,00,56,10.40
2015,10,16,00,57,10.50
2015,10,16,00,58,10.60
2015,10,16,00,59,10.80
2015,10,16,01,00,10.90
2015,10,16,01,01,11.00
2015,10,16,01,02,11.00
2015,10,16,01,03,11.10
2015,10,16,01,04,11.20
2015,10,16,01,05,11.20
2015,10,16,01,06,11.20
2015,10,16,01,07,11.20
2015,10,16,01,08,11.20
2015,10,16,01,09,11.20
2015,10,16,01,10,11.20
2015,10,16,01,11,11.20
2015,10,16,01,12,11.20
2015,10,16,01,13,11.30
2015,10,16,01,14,11.40
2015,10,16,01,15,11.50
2015,10,16,01,16,11.50
2015,10,16,01,17,11.60
2015,10,16,01,18,11.70
2015,10,16,01,19,11.80
2015,10,16,01,20,11.80
2015,10,16,01,21,11.80
2015,10,16,01,22,11.90
2015,10,16,01,23,11.90
2015,10,16,01,24,11.90
2015,10,16,01,25,12.00
2015,10,16,01,26,12.00
2015,10,16,01,27,12.00
2015,10,16,01,28,12.00
2015,10,16,01,29,12.10
2015,10,16,01,30,12.10
2015,10,16,01,31,12.10
2015,10,16,01,32,12.10
2015,10,16,01,33,12.20
2015,10,16,01,34,12.30
2015,10,16,01,35,12.30
2015,10,16,01,36,12.40
2015,10,16,01,37,12.50
2015,10,16,01,38,12.60
2015,10,16,01,39,12.70
2015,10,16,01,40,12.70
2015,10,16,01,41,12.80
2015,10,16,01,42,12.80
2015,10,16,01,43,12.80
2015,10,16,01,44,12.80
2015,10,16,01,45,12.80
2015,10,16,01,46,12.80
2015,10,16,01,47,12.90
2015,10,16,01,48,12.90
2015,10,16,01,49,13.00
2015,10,16,01,50,13.00
2015,10,16,01,51,13.10
2015,10,16,01,52,13.10
2015,10,16,01,53,13.10
2015,10,16,01,54,13.00
2015,10,16,01,55,13.00
2015,10,16,01,56,13.00
2015,10,16,01,57,13.00
2015,10,16,01,58,12.90
2015,10,16,01,59,12.90
2015,10,16,02,00,12.90
2015,10,16,02,01,12.90
2015,10,16,02,02,12.90
2015,10,16,02,03,13.00
2015,10,16,02,04,13.00
2015,10,16,02,05,13.00
2015,10,16,02,06,13.10
2015,10,16,02,07,13.10
2015,10,16,02,08,13.10
2015,10,16,02,09,13.10
2015,10,16,02,10,13.20
2015,10,16,02,11,13.20
2015,10,16,02,12,13.20
2015,10,16,02,13,13.10
2015,10,16,02,14,13.10
2015,10,16,02,15,13.10
2015,10,16,02,16,13.10
2015,10,16,02,17,13.10
2015,10,16,02,18,13.10
2015,10,16,02,19,13.10
2015,10,16,02,20,13.10
2015,10,16,02,21,13.10
2015,10,16,02,22,13.10
2015,10,16,02,23,13.10
2015,10,16,02,24,13.00
2015,10,16,02,25,13.00
2015,10,16,02,26,13.00
2015,10,16,02,27,13.10
2015,10,16,02,28,13.10
2015,10,16,02,29,13.10
2015,10,16,02,30,13.10
2015,10,16,02,31,13.10
2015,10,16,02,32,13.20
2015,10,16,02,33,13.20
2015,10,16,02,34,13.20
2015,10,16,02,35,13.20
2015,10,16,02,36,13.20
2015,10,16,02,37,13.20
2015,10,16,02,38,13.20
2015,10,16,02,39,13.20
2015,10,16,02,40,13.20
2015,10,16,02,41,13.20
2015,10,16,02,42,13.30
2015,10,16,02,43,13.30
2015,10,16,02,44,13.30
2015,10,16,02,45,13.30
2015,10,16,02,46,13.30
2015,10,16,02,47,13.30
2015,10,16,02,48,13.30
2015,10,16,02,49,13.30
2015,10,16,02,50,13.30
2015,10,16,02,51,13.30
2015,10,16,02,52,13.30
2015,10,16,02,53,13.30
2015,10,16,02,54,13.30
2015,10,16,02,55,13.30
2015,10,16,02,56,13.30
2015,10,16,02,57,13.30
2015,10,16,02,58,13.30
2015,10,16,02,59,13.30
2015,10,16,03,00,13.30
2015,10,16,03,01,13.30
2015,10,16,03,02,13.30
2015,10,16,03,03,13.30
2015,10,16,03,04,13.30
2015,10,16,03,05,13.20
2015,10,16,03,06,13.20
2015,10,16,03,07,13.30
2015,10,16,03,08,13.30
2015,10,16,03,09,13.30
2015,10,16,03,10,13.30
2015,10,16,03,11,13.40
2015,10,16,03,12,13.30
2015,10,16,03,13,13.30
2015,10,16,03,14,13.30
2015,10,16,03,15,13.30
2015,10,16,03,16,13.30
2015,10,16,03,17,13.30
2015,10,16,03,18,13.20
2015,10,16,03,19,13.20
2015,10,16,03,20,13.20
2015,10,16,03,21,13.10
2015,10,16,03,22,13.10
2015,10,16,03,23,13.10
2015,10,16,03,24,13.10
2015,10,16,03,25,13.10
2015,10,16,03,26,13.10
2015,10,16,03,27,13.10
2015,10,16,03,28,13.20
2015,10,16,03,29,13.20
2015,10,16,03,30,13.20
2015,10,16,03,31,13.20
2015,10,16,03,32,13.20
2015,10,16,03,33,13.20
2015,10,16,03,34,13.20
2015,10,16,03,35,13.20
2015,10,16,03,36,13.10
2015,10,16,03,37,13.10
2015,10,16,03,38,13.10
2015,10,16,03,39,13.10
2015,10,16,03,40,13.10
2015,10,16,03,41,13.10
2015,10,16,03,42,13.00
2015,10,16,03,43,13.00
2015,10,16,03,44,12.90
2015,10,16,03,45,12.90
2015,10,16,03,46,12.80
2015,10,16,03,47,12.80
2015,10,16,03,48,12.70
2015,10,16,03,49,12.70
2015,10,16,03,50,12.60
2015,10,16,03,51,12.50
2015,10,16,03,52,12.50
2015,10,16,03,53,12.40
2015,10,16,03,54,12.40
2015,10,16,03,55,12.40
2015,10,16,03,56,12.30
2015,10,16,03,57,12.30
2015,10,16,03,58,12.20
2015,10,16,03,59,12.20
2015,10,16,04,00,12.20
2015,10,16,04,01,12.10
2015,10,16,04,02,12.10
2015,10,16,04,03,12.10
2015,10,16,04,04,12.10
2015,10,16,04,05,12.20
2015,10,16,04,06,12.20
2015,10,16,04,07,12.30
2015,10,16,04,08,12.40
2015,10,16,04,09,12.50
2015,10,16,04,10,12.60
2015,10,16,04,11,12.70
2015,10,16,04,12,12.80
2015,10,16,04,13,12.80
2015,10,16,04,14,12.80
2015,10,16,04,15,12.80
2015,10,16,04,16,12.80
2015,10,16,04,17,12.80
2015,10,16,04,18,12.80
2015,10,16,04,19,12.80
2015,10,16,04,20,12.80
2015,10,16,04,21,12.80
2015,10,16,04,22,12.80
2015,10,16,04,23,12.80
2015,10,16,04,24,12.80
2015,10,16,04,25,12.80
2015,10,16,04,26,12.80
2015,10,16,04,27,12.70
2015,10,16,04,28,12.70
2015,10,16,04,29,12.70
2015,10,16,04,30,12.70
2015,10,16,04,31,12.70
2015,10,16,04,32,12.70
2015,10,16,04,33,12.70
2015,10,16,04,34,12.70
2015,10,16,04,35,12.70
2015,10,16,04,36,12.70
2015,10,16,04,37,12.70
2015,10,16,04,38,12.70
2015,10,16,04,39,12.70
2015,10,16,04,40,12.70
2015,10,16,04,41,12.70
2015,10,16,04,42,12.60
2015,10,16,04,43,12.60
2015,10,16,04,44,12.50
2015,10,16,04,45,12.40
2015,10,16,04,46,12.30
2015,10,16,04,47,12.20
2015,10,16,04,48,12.10
2015,10,16,04,49,12.00
2015,10,16,04,50,11.90
2015,10,16,04,51,11.90
2015,10,16,04,52,11.80
2015,10,16,04,53,11.80
2015,10,16,04,54,11.80
2015,10,16,04,55,11.70
2015,10,16,04,56,11.60
2015,10,16,04,57,11.50
2015,10,16,04,58,11.50
2015,10,16,04,59,11.40
2015,10,16,05,00,11.30
2015,10,16,05,01,11.30
2015,10,16,05,02,11.20
2015,10,16,05,03,11.20
2015,10,16,05,04,11.20
2015,10,16,05,05,11.10
2015,10,16,05,06,11.10
2015,10,16,05,07,11.10
2015,10,16,05,08,11.10
2015,10,16,05,09,11.00
2015,10,16,05,10,11.00
2015,10,16,05,11,10.90
2015,10,16,05,12,10.80
2015,10,16,05,13,10.80
2015,10,16,05,14,10.70
2015,10,16,05,15,10.70
2015,10,16,05,16,10.60
2015,10,16,05,17,10.60
2015,10,16,05,18,10.50
2015,10,16,05,19,10.50
2015,10,16,05,20,10.40
2015,10,16,05,21,10.40
2015,10,16,05,22,10.30
2015,10,16,05,23,10.30
2015,10,16,05,24,10.30
2015,10,16,05,25,10.20
2015,10,16,05,26,10.20
2015,10,16,05,27,10.20
2015,10,16,05,28,10.10
2015,10,16,05,29,10.10
2015,10,16,05,30,10.10
2015,10,16,05,31,10.10
2015,10,16,05,32,10.00
2015,10,16,05,33,10.00
2015,10,16,05,34,10.00
2015,10,16,05,35,10.00
2015,10,16,05,36,9.90
2015,10,16,05,37,9.90
2015,10,16,05,38,9.90
2015,10,16,05,39,9.90
2015,10,16,05,40,10.00
2015,10,16,05,41,10.10
2015,10,16,05,42,10.20
2015,10,16,05,43,10.30
2015,10,16,05,44,10.40
2015,10,16,05,45,10.50
2015,10,16,05,46,10.60
2015,10,16,05,47,10.80
2015,10,16,05,48,10.90
2015,10,16,05,49,10.90
2015,10,16,05,50,11.00
2015,10,16,05,51,11.00
2015,10,16,05,52,11.00
2015,10,16,05,53,10.90
2015,10,16,05,54,10.90
2015,10,16,05,55,10.80
2015,10,16,05,56,10.80
2015,10,16,05,57,10.70
2015,10,16,05,58,10.70
2015,10,16,05,59,10.60
2015,10,16,06,00,10.60
2015,10,16,06,01,10.60
2015,10,16,06,02,10.50
2015,10,16,06,03,10.50
2015,10,16,06,04,10.40
2015,10,16,06,05,10.40
2015,10,16,06,06,10.40
2015,10,16,06,07,10.40
2015,10,16,06,08,10.40
2015,10,16,06,09,10.50
2015,10,16,06,10,10.60
2015,10,16,06,11,10.80
2015,10,16,06,12,10.90
2015,10,16,06,13,11.00
2015,10,16,06,14,11.10
2015,10,16,06,15,11.20
2015,10,16,06,16,11.30
2015,10,16,06,17,11.50
2015,10,16,06,18,11.50
2015,10,16,06,19,11.60
2015,10,16,06,20,11.70
2015,10,16,06,21,11.70
2015,10,16,06,22,11.80
2015,10,16,06,23,11.90
2015,10,16,06,24,11.90
2015,10,16,06,25,12.00
2015,10,16,06,26,12.00
2015,10,16,06,27,12.10
2015,10,16,06,28,12.10
2015,10,16,06,29,12.10
2015,10,16,06,30,12.10
2015,10,16,06,31,12.10
2015,10,16,06,32,12.10
2015,10,16,06,33,12.10
2015,10,16,06,34,12.10
2015,10,16,06,35,12.10
2015,10,16,06,36,12.10
2015,10,16,06,37,12.20
2015,10,16,06,38,12.20
2015,10,16,06,39,12.30
2015,10,16,06,40,12.30
2015,10,16,06,41,12.40
2015,10,16,06,42,12.40
2015,10,16,06,43,12.40
2015,10,16,06,44,12.40
2015,10,16,06,45,12.40
2015,10,16,06,46,12.40
2015,10,16,06,47,12.40
2015,10,16,06,48,12.40
2015,10,16,06,49,12.40
2015,10,16,06,50,12.40
2015,10,16,06,51,12.40
2015,10,16,06,52,12.40
2015,10,16,06,53,12.30
2015,10,16,06,54,12.40
2015,10,16,06,55,12.40
2015,10,16,06,56,12.30
2015,10,16,06,57,12.30
2015,10,16,06,58,12.30
2015,10,16,06,59,12.30
2015,10,16,07,00,12.30
2015,10,16,07,01,12.20
2015,10,16,07,02,12.10
2015,10,16,07,03,12.10
2015,10,16,07,04,12.00
2015,10,16,07,05,11.90
2015,10,16,07,06,11.90
2015,10,16,07,07,11.80
2015,10,16,07,08,11.70
2015,10,16,07,09,11.60
2015,10,16,07,10,11.40
2015,10,16,07,11,11.30
2015,10,16,07,12,11.30
2015,10,16,07,13,11.20
2015,10,16,07,14,11.00
2015,10,16,07,15,10.90
2015,10,16,07,16,10.80
2015,10,16,07,17,10.80
2015,10,16,07,18,10.70
2015,10,16,07,19,10.60
2015,10,16,07,20,10.50
2015,10,16,07,21,10.40
2015,10,16,07,22,10.30
2015,10,16,07,23,10.20
2015,10,16,07,24,10.10
2015,10,16,07,25,10.10
2015,10,16,07,26,10.00
2015,10,16,07,27,10.00
2015,10,16,07,28,9.90
2015,10,16,07,29,9.90
2015,10,16,07,30,9.90
2015,10,16,07,31,9.90
2015,10,16,07,32,9.90
2015,10,16,07,33,9.90
2015,10,16,07,34,9.80
2015,10,16,07,35,9.80
2015,10,16,07,36,9.80
2015,10,16,07,37,9.80
2015,10,16,07,38,9.80
2015,10,16,07,39,9.80
2015,10,16,07,40,9.80
2015,10,16,07,41,9.80
2015,10,16,07,42,9.80
2015,10,16,07,43,9.80
2015,10,16,07,44,9.80
2015,10,16,07,45,9.80
2015,10,16,07,46,9.80
2015,10,16,07,47,9.80
2015,10,16,07,48,9.80
2015,10,16,07,49,9.80
2015,10,16,07,50,9.80
2015,10,16,07,51,9.80
2015,10,16,07,52,9.80
2015,10,16,07,53,9.70
2015,10,16,07,54,9.70
2015,10,16,07,55,9.70
2015,10,16,07,56,9.70
2015,10,16,07,57,9.60
2015,10,16,07,58,9.60
2015,10,16,07,59,9.60
2015,10,16,08,00,9.70
2015,10,16,08,01,9.70
2015,10,16,08,02,9.70
2015,10,16,08,03,9.70
2015,10,16,08,04,9.70
2015,10,16,08,05,9.80
2015,10,16,08,06,9.80
2015,10,16,08,07,9.90
2015,10,16,08,08,10.10
2015,10,16,08,09,10.30
2015,10,16,08,10,10.50
2015,10,16,08,11,10.80
2015,10,16,08,12,11.00
2015,10,16,08,13,11.30
2015,10,16,08,14,11.40
2015,10,16,08,15,11.60
2015,10,16,08,16,11.70
2015,10,16,08,17,11.80
2015,10,16,08,18,11.90
2015,10,16,08,19,12.00
2015,10,16,08,20,12.10
2015,10,16,08,21,12.10
2015,10,16,08,22,12.20
2015,10,16,08,23,12.30
2015,10,16,08,24,12.40
2015,10,16,08,25,12.40
2015,10,16,08,26,12.50
2015,10,16,08,27,12.60
2015,10,16,08,28,12.60
2015,10,16,08,29,12.70
2015,10,16,08,30,12.70
2015,10,16,08,31,12.70
2015,10,16,08,32,12.70
2015,10,16,08,33,12.80
2015,10,16,08,34,12.80
2015,10,16,08,35,12.80
2015,10,16,08,36,12.80
2015,10,16,08,37,12.80
2015,10,16,08,38,12.80
2015,10,16,08,39,12.70
2015,10,16,08,40,12.70
2015,10,16,08,41,12.60
2015,10,16,08,42,12.60
2015,10,16,08,43,12.50
2015,10,16,08,44,12.50
2015,10,16,08,45,12.40
2015,10,16,08,46,12.40
2015,10,16,08,47,12.40
2015,10,16,08,48,12.30
2015,10,16,08,49,12.30
2015,10,16,08,50,12.30
2015,10,16,08,51,12.30
2015,10,16,08,52,12.20
2015,10,16,08,53,12.20
2015,10,16,08,54,12.20
2015,10,16,08,55,12.20
2015,10,16,08,56,12.20
2015,10,16,08,57,12.20
2015,10,16,08,58,12.30
2015,10,16,08,59,12.30
2015,10,16,09,00,12.30
2015,10,16,09,01,12.30
2015,10,16,09,02,12.30
2015,10,16,09,03,12.40
2015,10,16,09,04,12.40
2015,10,16,09,05,12.50
2015,10,16,09,06,12.50
2015,10,16,09,07,12.60
2015,10,16,09,08,12.60
2015,10,16,09,09,12.70
2015,10,16,09,10,12.80
2015,10,16,09,11,12.80
2015,10,16,09,12,12.80
2015,10,16,09,13,12.90
2015,10,16,09,14,13.00
2015,10,16,09,15,13.00
2015,10,16,09,16,13.10
2015,10,16,09,17,13.10
2015,10,16,09,18,13.10
2015,10,16,09,19,13.20
2015,10,16,09,20,13.30
2015,10,16,09,21,13.40
2015,10,16,09,22,13.60
2015,10,16,09,23,13.70
2015,10,16,09,24,13.90
2015,10,16,09,25,14.00
2015,10,16,09,26,14.20
2015,10,16,09,27,14.30
2015,10,16,09,28,14.40
2015,10,16,09,29,14.50
2015,10,16,09,30,14.60
2015,10,16,09,31,14.70
2015,10,16,09,32,14.80
2015,10,16,09,33,14.80
2015,10,16,09,34,14.90
2015,10,16,09,35,14.90
2015,10,16,09,36,15.00
2015,10,16,09,37,15.00
2015,10,16,09,38,15.10
2015,10,16,09,39,15.10
2015,10,16,09,40,15.20
2015,10,16,09,41,15.20
2015,10,16,09,42,15.20
2015,10,16,09,43,15.30
2015,10,16,09,44,15.30
2015,10,16,09,45,15.30
2015,10,16,09,46,15.40
2015,10,16,09,47,15.40
2015,10,16,09,48,15.50
2015,10,16,09,49,15.50
2015,10,16,09,50,15.60
2015,10,16,09,51,15.60
2015,10,16,09,52,15.70
2015,10,16,09,53,15.70
2015,10,16,09,54,15.70
2015,10,16,09,55,15.80
2015,10,16,09,56,15.80
2015,10,16,09,57,15.80
2015,10,16,09,58,15.90
2015,10,16,09,59,15.90
2015,10,16,10,00,15.90
2015,10,16,10,01,15.90
2015,10,16,10,02,16.00
2015,10,16,10,03,16.00
2015,10,16,10,04,16.10
2015,10,16,10,05,16.10
2015,10,16,10,06,16.10
2015,10,16,10,07,16.10
2015,10,16,10,08,16.20
2015,10,16,10,09,16.20
2015,10,16,10,10,16.20
2015,10,16,10,11,16.20
2015,10,16,10,12,16.20
2015,10,16,10,13,16.20
2015,10,16,10,14,16.20
2015,10,16,10,15,16.30
2015,10,16,10,16,16.30
2015,10,16,10,17,16.30
2015,10,16,10,18,16.30
2015,10,16,10,19,16.30
2015,10,16,10,20,16.30
2015,10,16,10,21,16.20
2015,10,16,10,22,16.20
2015,10,16,10,23,16.20
2015,10,16,10,24,16.20
2015,10,16,10,25,16.20
2015,10,16,10,26,16.30
2015,10,16,10,27,16.30
2015,10,16,10,28,16.30
2015,10,16,10,29,16.30
2015,10,16,10,30,16.40
2015,10,16,10,31,16.40
2015,10,16,10,32,16.50
2015,10,16,10,33,16.50
2015,10,16,10,34,16.50
2015,10,16,10,35,16.50
2015,10,16,10,36,16.60
2015,10,16,10,37,16.60
2015,10,16,10,38,16.70
2015,10,16,10,39,16.70
2015,10,16,10,40,16.70
2015,10,16,10,41,16.80
2015,10,16,10,42,16.80
2015,10,16,10,43,16.80
2015,10,16,10,44,16.80
2015,10,16,10,45,16.80
2015,10,16,10,46,16.90
2015,10,16,10,47,16.90
2015,10,16,10,48,16.90
2015,10,16,10,49,16.90
2015,10,16,10,50,16.90
2015,10,16,10,51,16.90
2015,10,16,10,52,16.90
2015,10,16,10,53,17.00
2015,10,16,10,54,17.00
2015,10,16,10,55,17.00
2015,10,16,10,56,17.10
2015,10,16,10,57,17.10
2015,10,16,10,58,17.20
2015,10,16,10,59,17.20
2015,10,16,11,00,17.20
2015,10,16,11,01,17.20
2015,10,16,11,02,17.20
2015,10,16,11,03,17.20
2015,10,16,11,04,17.10
2015,10,16,11,05,17.10
2015,10,16,11,06,17.10
2015,10,16,11,07,17.10
2015,10,16,11,08,17.10
2015,10,16,11,09,17.10
2015,10,16,11,10,17.10
2015,10,16,11,11,17.20
2015,10,16,11,12,17.20
2015,10,16,11,13,17.10
2015,10,16,11,14,17.10
2015,10,16,11,15,17.10
2015,10,16,11,16,17.10
2015,10,16,11,17,17.10
2015,10,16,11,18,17.10
2015,10,16,11,19,17.10
2015,10,16,11,20,17.20
2015,10,16,11,21,17.20
2015,10,16,11,22,17.20
2015,10,16,11,23,17.20
2015,10,16,11,24,17.10
2015,10,16,11,25,17.10
2015,10,16,11,26,17.00
2015,10,16,11,27,17.00
2015,10,16,11,28,17.00
2015,10,16,11,29,17.10
2015,10,16,11,30,17.10
2015,10,16,11,31,17.20
2015,10,16,11,32,17.30
2015,10,16,11,33,17.40
2015,10,16,11,34,17.40
2015,10,16,11,35,17.40
2015,10,16,11,36,17.40
2015,10,16,11,37,17.40
2015,10,16,11,38,17.40
2015,10,16,11,39,17.30
2015,10,16,11,40,17.30
2015,10,16,11,41,17.30
2015,10,16,11,42,17.40
2015,10,16,11,43,17.40
2015,10,16,11,44,17.40
2015,10,16,11,45,17.50
2015,10,16,11,46,17.50
2015,10,16,11,47,17.40
2015,10,16,11,48,17.40
2015,10,16,11,49,17.40
2015,10,16,11,50,17.50
2015,10,16,11,51,17.50
2015,10,16,11,52,17.60
2015,10,16,11,53,17.70
2015,10,16,11,54,17.70
2015,10,16,11,55,17.80
2015,10,16,11,56,17.80
2015,10,16,11,57,17.80
2015,10,16,11,58,17.90
2015,10,16,11,59,17.90
2015,10,16,12,00,17.80
2015,10,16,12,01,17.80
2015,10,16,12,02,17.80
2015,10,16,12,03,17.80
2015,10,16,12,04,17.70
2015,10,16,12,05,17.70
2015,10,16,12,06,17.70
2015,10,16,12,07,17.70
2015,10,16,12,08,17.70
2015,10,16,12,09,17.70
2015,10,16,12,10,17.70
2015,10,16,12,11,17.70
2015,10,16,12,12,17.80
2015,10,16,12,13,17.80
2015,10,16,12,14,17.80
2015,10,16,12,15,17.90
2015,10,16,12,16,17.90
2015,10,16,12,17,17.90
2015,10,16,12,18,18.00
2015,10,16,12,19,18.00
2015,10,16,12,20,18.10
2015,10,16,12,21,18.10
2015,10,16,12,22,18.10
2015,10,16,12,23,18.20
2015,10,16,12,24,18.20
2015,10,16,12,25,18.10
2015,10,16,12,26,18.10
2015,10,16,12,27,18.10
2015,10,16,12,28,18.10
2015,10,16,12,29,18.10
2015,10,16,12,30,18.10
2015,10,16,12,31,18.10
2015,10,16,12,32,18.10
2015,10,16,12,33,18.20
2015,10,16,12,34,18.20
2015,10,16,12,35,18.30
2015,10,16,12,36,18.30
2015,10,16,12,37,18.30
2015,10,16,12,38,18.30
2015,10,16,12,39,18.30
2015,10,16,12,40,18.30
2015,10,16,12,41,18.30
2015,10,16,12,42,18.40
2015,10,16,12,43,18.40
2015,10,16,12,44,18.50
2015,10,16,12,45,18.60
2015,10,16,12,46,18.70
2015,10,16,12,47,18.80
2015,10,16,12,48,18.80
2015,10,16,12,49,18.80
2015,10,16,12,50,18.70
2015,10,16,12,51,18.70
2015,10,16,12,52,18.60
2015,10,16,12,53,18.50
2015,10,16,12,54,18.50
2015,10,16,12,55,18.50
2015,10,16,12,56,18.50
2015,10,16,12,57,18.50
2015,10,16,12,58,18.50
2015,10,16,12,59,18.50
2015,10,16,13,00,18.40
2015,10,16,13,01,18.40
2015,10,16,13,02,18.50
2015,10,16,13,03,18.50
2015,10,16,13,04,18.50
2015,10,16,13,05,18.50
2015,10,16,13,06,18.50
2015,10,16,13,07,18.60
2015,10,16,13,08,18.60
2015,10,16,13,09,18.60
2015,10,16,13,10,18.60
2015,10,16,13,11,18.70
2015,10,16,13,12,18.70
2015,10,16,13,13,18.80
2015,10,16,13,14,18.80
2015,10,16,13,15,18.80
2015,10,16,13,16,18.80
2015,10,16,13,17,18.80
2015,10,16,13,18,18.70
2015,10,16,13,19,18.70
2015,10,16,13,20,18.70
2015,10,16,13,21,18.70
2015,10,16,13,22,18.80
2015,10,16,13,23,18.80
2015,10,16,13,24,18.80
2015,10,16,13,25,18.80
2015,10,16,13,26,18.80
2015,10,16,13,27,18.80
2015,10,16,13,28,18.80
2015,10,16,13,29,18.80
2015,10,16,13,30,18.80
2015,10,16,13,31,18.80
2015,10,16,13,32,18.80
2015,10,16,13,33,18.80
2015,10,16,13,34,18.80
2015,10,16,13,35,18.80
2015,10,16,13,36,18.70
2015,10,16,13,37,18.70
2015,10,16,13,38,18.80
2015,10,16,13,39,18.80
2015,10,16,13,40,18.80
2015,10,16,13,41,18.80
2015,10,16,13,42,18.80
2015,10,16,13,43,18.80
2015,10,16,13,44,18.80
2015,10,16,13,45,18.80
2015,10,16,13,46,18.80
2015,10,16,13,47,18.90
2015,10,16,13,48,19.00
2015,10,16,13,49,19.10
2015,10,16,13,50,19.10
2015,10,16,13,51,19.10
2015,10,16,13,52,19.10
2015,10,16,13,53,19.10
2015,10,16,13,54,19.10
2015,10,16,13,55,19.20
2015,10,16,13,56,19.20
2015,10,16,13,57,19.20
2015,10,16,13,58,19.20
2015,10,16,13,59,19.20
2015,10,16,14,00,19.30
2015,10,16,14,01,19.30
2015,10,16,14,02,19.40
2015,10,16,14,03,19.40
2015,10,16,14,04,19.40
2015,10,16,14,05,19.40
2015,10,16,14,06,19.40
2015,10,16,14,07,19.40
2015,10,16,14,08,19.40
2015,10,16,14,09,19.40
2015,10,16,14,10,19.40
2015,10,16,14,11,19.40
2015,10,16,14,12,19.40
2015,10,16,14,13,19.40
2015,10,16,14,14,19.40
2015,10,16,14,15,19.40
2015,10,16,14,16,19.30
2015,10,16,14,17,19.30
2015,10,16,14,18,19.40
2015,10,16,14,19,19.40
2015,10,16,14,20,19.50
2015,10,16,14,21,19.50
2015,10,16,14,22,19.50
2015,10,16,14,23,19.50
2015,10,16,14,24,19.50
2015,10,16,14,25,19.50
2015,10,16,14,26,19.50
2015,10,16,14,27,19.40
2015,10,16,14,28,19.40
2015,10,16,14,29,19.40
2015,10,16,14,30,19.50
2015,10,16,14,31,19.50
2015,10,16,14,32,19.50
2015,10,16,14,33,19.50
2015,10,16,14,34,19.60
2015,10,16,14,35,19.60
2015,10,16,14,36,19.60
2015,10,16,14,37,19.60
2015,10,16,14,38,19.60
2015,10,16,14,39,19.70
2015,10,16,14,40,19.70
2015,10,16,14,41,19.70
2015,10,16,14,42,19.70
2015,10,16,14,43,19.80
2015,10,16,14,44,19.80
2015,10,16,14,45,19.90
2015,10,16,14,46,19.90
2015,10,16,14,47,19.80
2015,10,16,14,48,19.80
2015,10,16,14,49,19.80
2015,10,16,14,50,19.80
2015,10,16,14,51,19.80
2015,10,16,14,52,19.80
2015,10,16,14,53,19.80
2015,10,16,14,54,19.80
2015,10,16,14,55,19.80
2015,10,16,14,56,19.80
2015,10,16,14,57,19.80
2015,10,16,14,58,19.90
2015,10,16,14,59,19.90
2015,10,16,15,00,20.00
2015,10,16,15,01,20.00
2015,10,16,15,02,20.00
2015,10,16,15,03,20.00
2015,10,16,15,04,20.00
2015,10,16,15,05,20.10
2015,10,16,15,06,20.10
2015,10,16,15,07,20.10
2015,10,16,15,08,20.10
2015,10,16,15,09,20.20
2015,10,16,15,10,20.20
2015,10,16,15,11,20.30
2015,10,16,15,12,20.30
2015,10,16,15,13,20.40
2015,10,16,15,14,20.40
2015,10,16,15,15,20.40
2015,10,16,15,16,20.50
2015,10,16,15,17,20.50
2015,10,16,15,18,20.40
2015,10,16,15,19,20.40
2015,10,16,15,20,20.40
2015,10,16,15,21,20.40
2015,10,16,15,22,20.40
2015,10,16,15,23,20.40
2015,10,16,15,24,20.40
2015,10,16,15,25,20.30
2015,10,16,15,26,20.40
2015,10,16,15,27,20.40
2015,10,16,15,28,20.50
2015,10,16,15,29,20.70
2015,10,16,15,30,20.80
2015,10,16,15,31,20.80
2015,10,16,15,32,20.80
2015,10,16,15,33,20.70
2015,10,16,15,34,20.70
2015,10,16,15,35,20.70
2015,10,16,15,36,20.70
2015,10,16,15,37,20.70
2015,10,16,15,38,20.70
2015,10,16,15,39,20.80
2015,10,16,15,40,20.80
2015,10,16,15,41,20.80
2015,10,16,15,42,20.80
2015,10,16,15,43,20.80
2015,10,16,15,44,20.80
2015,10,16,15,45,20.80
2015,10,16,15,46,20.70
2015,10,16,15,47,20.70
2015,10,16,15,48,20.70
2015,10,16,15,49,20.60
2015,10,16,15,50,20.60
2015,10,16,15,51,20.50
2015,10,16,15,52,20.40
2015,10,16,15,53,20.40
2015,10,16,15,54,20.30
2015,10,16,15,55,20.30
2015,10,16,15,56,20.20
2015,10,16,15,57,20.10
2015,10,16,15,58,20.10
2015,10,16,15,59,20.00
2015,10,16,16,00,20.00
2015,10,16,16,01,20.00
2015,10,16,16,02,19.90
2015,10,16,16,03,19.90
2015,10,16,16,04,19.90
2015,10,16,16,05,19.90
2015,10,16,16,06,20.00
2015,10,16,16,07,20.00
2015,10,16,16,08,19.90
2015,10,16,16,09,19.90
2015,10,16,16,10,19.90
2015,10,16,16,11,19.90
2015,10,16,16,12,19.80
2015,10,16,16,13,19.80
2015,10,16,16,14,19.80
2015,10,16,16,15,19.80
2015,10,16,16,16,19.80
2015,10,16,16,17,19.80
2015,10,16,16,18,19.80
2015,10,16,16,19,19.90
2015,10,16,16,20,19.90
2015,10,16,16,21,20.00
2015,10,16,16,22,20.10
2015,10,16,16,23,20.20
2015,10,16,16,24,20.20
2015,10,16,16,25,20.30
2015,10,16,16,26,20.30
2015,10,16,16,27,20.30
2015,10,16,16,28,20.30
2015,10,16,16,29,20.30
2015,10,16,16,30,20.30
2015,10,16,16,31,20.30
2015,10,16,16,32,20.30
2015,10,16,16,33,20.00
2015,10,16,16,34,19.60
2015,10,16,16,35,19.30
2015,10,16,16,36,18.80
2015,10,16,16,37,18.30
2015,10,16,16,38,18.00
2015,10,16,16,39,17.70
2015,10,16,16,40,17.40
2015,10,16,16,41,17.10
2015,10,16,16,42,16.90
2015,10,16,16,43,16.70
2015,10,16,16,44,16.50
2015,10,16,16,45,16.30
2015,10,16,16,46,16.20
2015,10,16,16,47,16.10
2015,10,16,16,48,16.00
2015,10,16,16,49,15.80
2015,10,16,16,50,15.70
2015,10,16,16,51,15.60
2015,10,16,16,52,15.60
2015,10,16,16,53,15.60
2015,10,16,16,54,15.70
2015,10,16,16,55,15.70
2015,10,16,16,56,15.70
2015,10,16,16,57,15.70
2015,10,16,16,58,15.70
2015,10,16,16,59,15.70
2015,10,16,17,00,15.70
2015,10,16,17,01,15.60
2015,10,16,17,02,15.60
2015,10,16,17,03,15.60
2015,10,16,17,04,15.60
2015,10,16,17,05,15.60
2015,10,16,17,06,15.60
2015,10,16,17,07,15.60
2015,10,16,17,08,15.70
2015,10,16,17,09,15.70
2015,10,16,17,10,15.70
2015,10,16,17,11,15.60
2015,10,16,17,12,15.60
2015,10,16,17,13,15.60
2015,10,16,17,14,15.60
2015,10,16,17,15,15.60
2015,10,16,17,16,15.60
2015,10,16,17,17,15.60
2015,10,16,17,18,15.60
2015,10,16,17,19,15.60
2015,10,16,17,20,15.60
2015,10,16,17,21,15.60